Hanalei, HI

11:08 PM HST on August 29, 2015 (GMT -1000)
North Shore of Kauai | | Change Station
CLOSE
Current Station
Personal Weather Station
Location: Princeville, HI
Elevation: 200 ft
Nearby Weather Stations

Elev 200 ft 22.23 °N, 159.48 °W | Updated 17 seconds ago

Partly Cloudy
Partly Cloudy
75.9 °F
Feels Like 75 °F
N
5.6
Wind Variable Wind from SSE
Gusts 6.0 mph

Today
High -- | Low -- °F
--% Chance of Precip.
Yesterday
High -- | Low -- °F
Precip. -- in
6:19 AM 6:57 PM
Waxing Gibbous, 99% visible
Pressure 29.95 in
Visibility 10.0 miles
Clouds Few 1900 ft
Heat Index 75 °F
Dew Point 74 °F
Humidity 95%
Rainfall in
Snow Depth Not available.
UV 0 out of 12
Pollen Not available.
Air Quality Not available.
Flu Activity Not available.
METAR PHLI 300853Z AUTO 06011KT 10SM FEW019 27/26 A2995 RMK AO2 SLP140 T02720256 51014 TSNO $
Pressure 29.95 in
Visibility 10.0 miles
Clouds Few 1900 ft
Heat Index 75 °F
Dew Point 74 °F
Humidity 95%
Rainfall in
Snow Depth Not available.
UV 0 out of 12
Pollen Not available.
Air Quality Not available.
Flu Activity Not available.
METAR PHLI 300853Z AUTO 06011KT 10SM FEW019 27/26 A2995 RMK AO2 SLP140 T02720256 51014 TSNO $
Hurricane Ignacio strengthened into a Category 4 hurricane Saturday and its current forecast track takes it just north of The Big Island Monday. While it is not a direct threat to make landfall in Hawaii, a track slightly to the south of its current forecast track could deteriorate weather conditions in the state. See the forecast track

10-Day Weather Forecast

×

Almanac

Astronomy

Aug. 29, 2015 Rise Set
Actual Time
Civil Twilight
Nautical Twilight
Astronomical Twilight
Moon
Length of Visible Light
Length of Day
Tomorrow will be .
, % of the Moon is Illuminated

Today's Extremes

State Highs State Lows

Community

WunderPhotos

Upload Photos

1,850,909 photos uploaded!

WunderBlogs® & News

Nearby

Air Quality

  Air Quality AQ Index Pollutant
Not available.

Snow Depth

Station Depth Elevation

Earthquake Activity

City Distance Mag. Time & Date
Minimum magnitude displayed is 2.5.

Coastal Water Temperatures

Place Temperature

Stations

Nearby Weather Stations

Station Location Temp. Windchill Dew Point Humidity Wind Precip. Elev Updated Type